Wind_Speed
26 25 25 24 24 22 20 20 20 21 21 19 18 17 16 16 15 14 12 11 11 10 10 9 9 8 8 8 8 7 6 5 4 4 3 3 4 4 4 4 5 5
26 26 26 25 24 23 21 21 21 21 21 20 19 18 18 18 17 16 14 13 12 12 11 10 9 9 8 8 9 8 8 7 6 5 4 4 4 4 4 4 4 4
25 26 26 25 24 23 22 21 21 21 21 20 20 20 20 20 18 17 16 15 14 13 12 11 10 10 9 8 9 9 9 9 8 7 6 5 4 4 4 3 4 3
25 25 25 24 24 23 23 22 21 21 21 20 20 21 21 21 20 19 18 17 16 15 13 12 12 11 10 9 9 9 10 10 10 9 7 6 6 5 4 3 3 3
24 24 24 24 24 24 24 24 22 22 21 20 20 21 21 21 21 20 19 19 18 16 15 14 13 12 11 10 10 9 10 11 11 10 9 8 7 7 6 5 4 4
23 24 24 24 25 24 25 24 23 22 22 21 21 21 21 21 21 20 20 20 19 17 16 15 15 14 12 12 11 10 10 11 12 11 10 10 10 9 8 7 7 6
23 23 24 24 25 25 24 24 24 23 22 22 22 22 22 22 22 21 20 20 20 19 18 17 16 15 14 13 12 11 11 11 12 12 11 11 11 11 10 9 9 8
24 23 23 24 25 25 25 24 24 23 23 23 24 23 23 22 22 21 21 21 21 20 20 18 17 16 16 14 13 12 12 12 13 12 12 13 13 12 12 12 11 11
24 24 24 25 25 25 25 25 24 24 23 23 24 24 23 22 22 21 21 22 22 22 21 20 18 16 16 15 13 12 12 13 14 14 13 14 14 14 14 14 14 13
24 25 25 25 25 25 25 25 25 24 24 23 24 24 23 21 21 21 21 22 23 23 22 21 19 16 16 16 14 13 12 13 14 15 15 15 15 16 16 16 15 14
25 25 26 26 26 25 25 25 25 25 24 23 23 23 22 21 21 21 21 22 22 22 22 21 19 17 16 16 16 14 13 13 15 15 15 15 16 17 17 18 17 16
24 26 26 25 25 25 25 25 26 26 25 24 23 23 23 22 21 20 20 21 21 21 21 20 19 18 16 16 16 15 14 14 15 15 15 15 16 17 18 19 18 18
23 24 25 25 25 25 25 25 26 26 25 24 24 24 24 23 22 21 20 19 19 20 20 20 19 18 17 16 17 16 15 14 14 15 15 14 15 16 17 19 19 18
21 22 24 24 24 25 25 25 26 26 26 25 24 25 25 25 23 21 20 20 20 20 20 20 19 18 18 17 17 17 15 14 14 15 14 14 14 14 15 17 18 18
19 20 22 23 24 25 25 25 25 26 27 26 25 25 25 25 24 22 21 21 21 20 21 21 20 19 18 17 17 17 15 14 14 15 15 14 14 14 14 15 16 17
19 19 21 22 23 25 26 26 25 26 26 26 26 25 25 25 24 23 23 22 22 22 22 22 21 20 19 17 17 17 16 16 15 15 15 15 15 14 14 14 15 15
19 19 20 21 22 23 25 26 26 26 26 26 26 25 25 26 25 25 24 23 23 23 23 23 22 20 19 18 17 17 17 17 17 16 16 16 16 15 14 14 14 15
20 20 20 20 21 21 23 25 26 26 26 26 26 25 25 26 26 26 25 23 23 24 24 24 23 21 20 19 18 18 18 19 19 18 18 17 16 16 15 15 15 15
22 21 21 21 21 20 21 23 25 26 26 26 26 26 25 26 26 26 26 25 24 24 24 25 24 23 22 21 20 20 19 20 21 21 20 19 18 17 16 16 16 16
25 24 22 21 21 21 21 22 23 24 24 25 26 27 26 26 26 27 27 26 25 24 24 24 24 23 23 22 21 20 20 21 21 22 22 21 20 19 18 18 17 17
26 26 25 23 23 23 23 23 23 24 24 24 26 28 28 26 26 27 27 27 27 26 25 24 24 24 24 22 21 21 20 21 22 23 23 23 22 21 20 19 18 18
28 28 28 26 25 24 24 25 25 25 25 24 24 26 27 27 27 28 28 28 28 27 27 26 25 25 25 24 22 21 21 23 24 24 24 23 23 23 23 22 21 20
29 29 29 29 28 26 25 26 26 27 26 26 25 25 26 27 28 28 28 29 29 28 28 27 26 25 24 24 23 22 23 24 24 24 24 24 24 24 24 24 23 22
31 31 30 30 30 29 27 26 27 28 28 28 27 26 25 25 26 28 29 29 29 29 28 27 26 25 24 23 23 23 23 24 24 24 25 25 25 25 26 25 24 23
34 33 32 31 31 31 30 28 27 28 29 29 29 27 26 25 25 27 29 30 30 29 29 28 27 26 25 24 23 23 23 24 24 26 27 27 27 27 27 26 25 24
35 35 34 33 32 33 33 31 29 28 29 30 30 29 28 27 27 27 28 29 31 31 30 28 27 27 27 25 24 23 24 25 26 27 28 28 28 28 28 27 26 25
Wind_Direction
216 216 215 215 216 218 216 216 217 217 216 213 210 210 211 212 214 212 205 203 206 208 209 212 217 220 217 212 211 211 213 216 211 194 174 159 152 139 123 107 101 104
216 216 217 217 216 217 217 216 218 221 221 219 216 215 215 215 216 216 211 207 209 212 214 218 223 230 230 222 218 217 217 221 225 216 200 189 180 166 154 135 118 114
217 217 218 218 218 218 218 218 219 222 224 223 221 220 219 218 217 218 217 212 214 217 218 221 227 233 237 232 225 222 221 224 228 228 217 209 202 196 187 167 151 140
217 218 218 218 219 219 219 220 219 222 225 225 225 224 223 222 219 218 220 217 217 220 221 223 228 234 238 240 234 227 226 227 230 232 229 223 218 215 215 207 190 179
218 219 218 217 219 218 219 221 220 221 224 225 226 228 228 227 223 219 220 223 222 221 223 226 231 235 237 240 240 235 231 232 232 233 235 234 230 228 227 225 219 210
218 219 219 217 218 218 219 222 222 222 223 226 226 228 230 231 228 221 218 223 227 225 225 227 231 237 239 239 241 240 236 236 236 234 236 238 236 237 237 233 232 230
216 218 219 218 217 218 218 219 223 223 223 226 228 228 229 231 232 226 219 221 227 229 229 229 231 237 242 242 241 241 241 241 240 235 233 238 240 241 242 241 241 241
216 216 218 220 218 218 217 217 220 223 223 225 229 231 230 230 232 230 225 223 225 229 231 232 232 235 241 245 241 241 244 245 247 243 236 238 241 244 244 245 245 246
217 216 216 219 220 219 218 217 219 221 222 224 229 233 233 231 231 231 229 227 226 228 231 234 235 234 239 246 245 242 244 247 249 249 244 241 241 243 245 247 248 249
218 217 215 217 219 219 218 218 219 221 222 224 228 233 236 235 234 232 231 231 229 229 231 234 236 236 239 246 247 243 242 246 249 248 247 245 242 243 244 247 250 250
218 217 217 217 218 219 218 218 219 220 222 224 226 232 235 236 236 233 233 233 232 233 233 234 238 238 238 242 246 244 238 241 247 248 248 247 246 246 245 245 248 249
219 218 217 217 218 219 218 218 221 221 221 223 224 230 234 235 235 234 233 234 234 237 238 237 238 238 236 237 242 243 238 236 242 247 249 248 246 247 248 248 248 248
222 219 218 217 217 219 219 219 222 223 223 223 223 227 232 234 233 231 232 233 232 236 240 240 239 238 235 234 237 240 238 237 240 245 249 250 248 247 249 251 251 250
224 221 220 218 215 217 219 220 222 225 226 225 224 226 231 234 233 229 229 232 230 232 238 240 238 236 234 231 233 238 239 238 241 245 247 250 250 248 248 250 253 253
226 223 222 220 216 216 219 220 222 225 228 228 225 226 229 233 235 230 225 228 230 229 232 237 237 235 233 231 232 237 241 240 241 245 249 250 250 250 250 251 254 256
228 227 224 223 220 218 219 221 221 223 227 230 228 226 228 231 235 234 227 225 228 228 229 233 236 233 232 232 231 234 241 243 241 241 246 250 251 251 251 252 254 257
227 228 228 228 226 222 221 223 224 223 225 230 231 227 227 230 234 237 234 228 227 229 229 231 234 233 231 231 229 230 236 242 245 243 243 247 251 252 252 253 254 256
228 228 229 230 230 227 225 226 228 228 225 228 231 229 227 228 232 236 238 235 230 229 231 232 232 231 230 229 228 228 232 238 243 245 244 244 248 252 253 253 254 256
231 229 227 230 231 232 229 228 231 233 230 228 230 230 228 227 230 234 238 239 236 231 231 234 234 231 228 227 227 228 231 235 240 244 247 246 247 250 253 254 254 255
232 231 229 228 228 230 230 230 232 235 236 233 231 232 230 226 228 232 235 239 240 237 234 234 236 235 231 227 227 229 233 237 241 244 247 249 250 251 253 254 256 257
231 232 231 229 226 227 229 231 233 234 237 237 234 235 234 230 227 229 232 236 239 241 240 236 235 236 235 230 229 230 234 238 243 246 247 250 253 255 256 257 257 258
231 231 233 233 229 227 227 229 232 233 235 237 237 238 238 234 230 229 231 234 237 240 242 240 237 235 235 234 232 232 235 238 241 246 250 252 255 258 260 260 259 258
231 231 233 235 234 230 227 228 231 232 233 235 237 239 239 238 235 232 231 234 235 237 240 242 241 238 236 236 234 233 235 239 242 247 251 254 256 258 260 261 260 260
231 231 232 235 237 235 230 228 229 231 232 234 236 238 241 242 240 236 235 235 236 237 238 240 242 242 239 237 236 235 236 238 242 247 250 253 255 257 259 261 262 262
230 231 232 234 237 238 235 231 229 230 232 233 235 236 238 241 242 239 237 237 238 238 238 237 239 241 241 238 236 237 237 237 239 244 248 252 254 256 258 261 263 264
230 230 231 232 236 238 237 233 230 230 232 233 234 235 235 238 241 241 239 239 239 240 239 238 238 239 241 240 237 236 238 239 240 242 246 251 255 257 259 260 263 264
Height
3203 3205 3206 3208 3210 3212 3214 3216 3218 3219 3221 3222 3224 3226 3227 3228 3229 3230 3232 3233 3234 3236 3237 3237 3238 3239 3240 3241 3242 3243 3243 3244 3245 3245 3246 3247 3247 3247 3247 3248 3248 3248
3201 3203 3205 3207 3208 3210 3212 3214 3216 3218 3219 3221 3223 3225 3226 3227 3228 3229 3231 3232 3233 3235 3236 3237 3237 3238 3239 3240 3241 3242 3243 3244 3244 3245 3246 3246 3247 3247 3248 3248 3248 3248
3199 3201 3203 3205 3207 3209 3211 3213 3215 3216 3218 3220 3222 3223 3224 3226 3227 3228 3230 3231 3232 3233 3235 3236 3237 3238 3239 3239 3240 3241 3242 3243 3244 3244 3245 3246 3246 3247 3247 3248 3248 3248
3197 3199 3201 3203 3205 3208 3210 3211 3213 3215 3217 3218 3220 3221 3223 3224 3226 3227 3228 3230 3231 3232 3234 3235 3236 3237 3238 3238 3239 3240 3241 3242 3243 3244 3244 3245 3246 3246 3247 3247 3248 3248
3196 3198 3200 3202 3204 3206 3208 3209 3211 3213 3215 3217 3219 3220 3221 3223 3224 3226 3227 3228 3230 3231 3233 3234 3234 3235 3237 3237 3238 3239 3240 3241 3242 3243 3244 3244 3245 3245 3246 3247 3247 3248
3194 3196 3198 3200 3202 3204 3206 3208 3209 3212 3213 3215 3217 3218 3219 3221 3222 3224 3226 3227 3228 3230 3231 3232 3233 3234 3235 3236 3237 3238 3239 3239 3240 3241 3242 3243 3244 3244 3245 3246 3247 3247
3192 3194 3196 3198 3200 3202 3204 3206 3208 3210 3212 3213 3215 3216 3218 3219 3221 3222 3224 3226 3227 3228 3229 3231 3232 3233 3234 3235 3236 3236 3237 3238 3239 3240 3241 3242 3242 3243 3244 3245 3245 3246
3190 3192 3194 3196 3198 3200 3202 3204 3206 3208 3210 3211 3213 3214 3216 3217 3219 3221 3222 3224 3225 3226 3228 3229 3230 3232 3232 3233 3234 3235 3236 3237 3237 3238 3240 3240 3241 3242 3243 3243 3244 3245
3188 3190 3192 3194 3196 3198 3200 3202 3204 3205 3208 3209 3211 3212 3214 3216 3217 3219 3221 3222 3224 3225 3226 3227 3228 3230 3231 3231 3233 3234 3235 3235 3236 3237 3238 3239 3240 3240 3241 3242 3242 3243
3186 3188 3190 3191 3193 3195 3198 3200 3201 3203 3205 3207 3209 3210 3212 3214 3216 3217 3219 3220 3222 3223 3224 3225 3226 3228 3229 3230 3231 3232 3233 3234 3234 3235 3236 3237 3238 3239 3239 3240 3241 3242
3183 3185 3187 3189 3191 3193 3195 3197 3199 3201 3203 3205 3207 3208 3210 3212 3214 3215 3217 3218 3220 3221 3222 3224 3225 3226 3228 3228 3229 3230 3232 3232 3233 3233 3234 3235 3236 3237 3237 3238 3239 3240
3181 3182 3184 3187 3189 3191 3193 3195 3197 3198 3200 3202 3204 3206 3207 3209 3211 3213 3215 3217 3218 3220 3221 3222 3224 3225 3226 3227 3228 3228 3230 3231 3231 3232 3233 3234 3234 3235 3235 3236 3237 3238
3178 3180 3182 3184 3187 3189 3191 3193 3195 3196 3198 3200 3202 3204 3205 3206 3209 3211 3213 3215 3216 3218 3219 3220 3222 3223 3224 3225 3226 3227 3228 3229 3230 3230 3231 3232 3232 3233 3233 3234 3234 3236
3177 3179 3181 3182 3185 3187 3188 3190 3192 3194 3196 3198 3200 3201 3203 3204 3206 3208 3210 3212 3214 3216 3217 3218 3220 3221 3222 3223 3224 3225 3226 3227 3228 3229 3230 3230 3231 3231 3232 3232 3232 3233
3175 3177 3179 3181 3182 3184 3186 3188 3190 3192 3193 3195 3197 3199 3201 3202 3204 3206 3208 3210 3211 3213 3214 3215 3217 3219 3220 3221 3223 3224 3225 3226 3226 3227 3228 3228 3229 3230 3230 3230 3231 3231
3173 3175 3177 3179 3180 3182 3184 3185 3187 3189 3191 3193 3195 3197 3199 3200 3202 3203 3205 3207 3209 3210 3212 3213 3214 3216 3218 3219 3221 3222 3223 3223 3224 3225 3226 3226 3227 3228 3228 3229 3229 3229
3171 3173 3175 3177 3179 3180 3182 3183 3185 3187 3189 3190 3192 3195 3197 3198 3200 3201 3202 3204 3206 3208 3209 3210 3212 3214 3216 3217 3219 3220 3221 3221 3222 3223 3224 3225 3225 3226 3227 3227 3228 3228
3169 3171 3173 3175 3177 3178 3180 3182 3183 3184 3186 3188 3189 3192 3195 3196 3197 3199 3200 3202 3204 3205 3206 3207 3209 3211 3213 3215 3216 3218 3218 3219 3220 3221 3222 3222 3223 3224 3225 3225 3226 3226
3167 3169 3171 3172 3174 3176 3178 3180 3181 3182 3184 3185 3187 3189 3191 3193 3195 3196 3198 3199 3201 3203 3204 3205 3207 3208 3210 3212 3214 3215 3216 3217 3217 3218 3219 3220 3221 3222 3223 3223 3224 3225
3164 3166 3168 3170 3172 3174 3176 3177 3178 3180 3181 3183 3185 3186 3188 3190 3192 3194 3195 3196 3198 3200 3201 3203 3205 3206 3208 3209 3211 3212 3213 3214 3215 3215 3216 3217 3218 3220 3220 3221 3222 3223
3161 3163 3165 3168 3170 3171 3173 3175 3176 3178 3179 3181 3182 3184 3185 3188 3190 3191 3193 3194 3195 3197 3198 3200 3202 3203 3205 3207 3208 3210 3211 3212 3212 3212 3213 3214 3216 3217 3218 3219 3220 3221
3158 3161 3163 3165 3167 3169 3170 3172 3174 3175 3177 3178 3180 3181 3183 3185 3186 3188 3190 3191 3193 3194 3195 3197 3199 3201 3202 3204 3206 3207 3208 3209 3209 3210 3210 3212 3213 3214 3215 3216 3217 3219
3155 3158 3160 3162 3164 3166 3168 3169 3171 3172 3174 3176 3177 3179 3180 3182 3184 3186 3187 3188 3190 3191 3192 3194 3196 3198 3200 3201 3203 3205 3205 3206 3207 3207 3208 3209 3210 3211 3212 3213 3214 3216
3152 3155 3157 3159 3160 3162 3165 3167 3168 3170 3171 3173 3174 3176 3178 3180 3181 3183 3185 3185 3187 3188 3190 3192 3193 3195 3197 3199 3200 3202 3202 3203 3204 3205 3206 3207 3208 3208 3209 3210 3211 3213
3149 3151 3153 3155 3157 3159 3162 3164 3166 3167 3169 3170 3172 3174 3175 3177 3179 3180 3182 3183 3184 3185 3187 3189 3191 3192 3194 3196 3198 3199 3200 3201 3202 3202 3203 3204 3205 3206 3207 3207 3209 3210
3146 3148 3150 3152 3154 3156 3158 3161 3163 3165 3166 3168 3169 3171 3173 3174 3175 3177 3179 3180 3181 3183 3184 3186 3188 3189 3191 3193 3195 3196 3197 3198 3198 3199 3200 3201 3202 3203 3204 3205 3206 3207